591  
ASUS46 KOTX 290025  
RWROTX  
 
EASTERN WASHINGTON/NORTHERN IDAHO ROUNDUP  
NATIONAL WEATHER SERVICE, SPOKANE WA  
400 PM PST MON NOV 28 2022  
 
NOTE: "FAIR" INDICATED FEW OR NO CLOUDS BELOW 12,000 FEET WITH NO  
SIGNIFICANT WEATHER AND/OR S TO VISIBILITY
.  
   
..NORTHEAST WASHINGTON AND NORTHERN IDAHO PANHANDLE
 
 
 
CITY SKY/WX TMP DP RH WIND PRES REMARKS
 
SPOKANE INTL PTCLDY 23 17 78 W7 29.72R WCI 15  
SPOKANE DOWNTO MOCLDY 28 22 78 NW3 29.75R  
COEUR D ALENE LGT SNOW 25 21 86 CALM 29.73R FOG  
DEER PARK CLOUDY 26 19 74 NW8 29.74R WCI 18  
SANDPOINT LGT SNOW 27 23 86 N10 29.74R VSB 1 WCI 17  
BONNERS FERRY LGT SNOW 23 19 86 N12 29.76R FOG WCI 12  
   
..SOUTHEAST WASHINGTON AND SOUTHERN IDAHO PANHANDLE
 
 
 
CITY SKY/WX TMP DP RH WIND PRES REMARKS
 
WALLA WALLA CLOUDY 32 27 81 S6 29.84R WCI 26  
PULLMAN/MOSCOW CLOUDY 26 25 96 W15 29.75R WCI 14  
LEWISTON CLOUDY 32 26 78 W9 29.80R WCI 24  
LOWELL N/A 33 30 88 CALM 29.77R  
GRANGEVILLE CLOUDY 27 27 100 SW3 29.69S  
   
..COLUMBIA BASIN
 
 
 
CITY SKY/WX TMP DP RH WIND PRES REMARKS
 
EPHRATA PTCLDY 27 7 42 N14 29.86 WCI 16  
MOSES LAKE PTCLDY 28 8 43 N15 29.86R WCI 16  
PASCO CLOUDY 36 25 64 NW8 29.90R  
RICHLAND CLOUDY 36 26 65 W6 29.91R  
HERMISTON MIX PCPN 37 30 75 E3 29.87R  
PENDLETON LGT SNOW 32 29 88 E8 29.84 VSB 1 WCI 25  
   
..EAST SLOPES CASCADES
 
 
 
CITY SKY/WX TMP DP RH WIND PRES REMARKS
 
THE DALLES CLEAR 43 27 53 W7 29.88R  
YAKIMA CLOUDY 35 30 82 E7 29.83R WCI 29  
ELLENSBURG CLOUDY 35 23 61 NW8 29.79 WCI 29  
STAMPEDE PASS CLOUDY 23 19 85 VRB5 29.73 WCI 17  
WENATCHEE CLOUDY 26 15 63 NE10 29.87R WCI 16  
WINTHROP FAIR 21 2 43 NW13 29.90 WCI 9  
OMAK CLEAR 22 8 55 N16 29.91 WCI 8  
SUNNYSIDE CLOUDY 36 25 65 CALM 29.87R  
   
..SOUTHERN BRITISH COLUMBIA
 
 
 
CITY SKY/WX TMP DP RH WIND PRES REMARKS
 
PENTICTON MOCLDY 23 7 50 N13 30.00R WCI 11  
CASTLEGAR FLURRIES 25 18 74 N13G25 29.81R WCI 13  
CRANBROOK MOCLDY 19 9 63 N10 29.80R WCI 8  
OSOYOOS N/A 25 7 46 N12G25 N/A WCI 14  
CRESTON N/A 25 16 68 NE8 N/A WCI 16  
   
..WESTERN MONTANA
 
 
 
CITY SKY/WX TMP DP RH WIND PRES REMARKS
 
KALISPELL CLOUDY 20 6 55 N21G31 29.75R WCI 4  
MISSOULA MOCLDY 27 15 61 SE13 29.68S WCI 16  
   
..NEIGHBORING CITIES
 
 
 
CITY SKY/WX TMP DP RH WIND PRES REMARKS
 
SEATTLE MOCLDY 38 22 52 N14 29.92  
PORTLAND MOCLDY 45 33 63 W9 29.94R  
BOISE LGT SNOW 31 27 85 N8G23 29.72R FOG WCI 23  
GREAT FALLS CLOUDY 10 3 73 NW7 29.88R WCI -1  
CALGARY MOCLDY 9 0 66 N17 29.89R WCI -10  
 
CLICK HERE TO GO TO PREVIOUS BULLETINS.

The Nexlab WA Page
The Nexlab ID Page Main Text Page